Stations météo

Publicité
Dax, France (7603): Température de l'air & dewpoint: 26.03.2020 09:00:00 - 01.04.2020 09:00:00 (CEST)Dax, France (7603): Température de l'air 5cm: 26.03.2020 09:00:00 - 01.04.2020 09:00:00 (CEST)Dax, France (7603): Température de l'air -20cm & Température de l'air -100cm: 26.03.2020 09:00:00 - 01.04.2020 09:00:00 (CEST)Dax, France (7603): Vitesse du vent & gusts: 26.03.2020 09:00:00 - 01.04.2020 09:00:00 (CEST)Dax, France (7603): Direction du vent: 26.03.2020 09:00:00 - 01.04.2020 09:00:00 (CEST)Dax, France (7603): reduced air pressure: 26.03.2020 09:00:00 - 01.04.2020 09:00:00 (CEST)Dax, France (7603): visibility: 26.03.2020 09:00:00 - 01.04.2020 09:00:00 (CEST)Dax, France (7603): Ensoleillement: 26.03.2020 09:00:00 - 01.04.2020 09:00:00 (CEST)Dax, France (7603): Quantités de précipitations: 26.03.2020 09:00:00 - 01.04.2020 09:00:00 (CEST)
Date & Time tt [°C] td [°C] tt 5cm [°C] tt -20cm [°C] tt -100cm [°C] ff [km/h] ff [knt] fx [km/h] fx [knt] dd ppp [hPa] vv [km] sd [min] rr [mm]
01.04.2020 09:00:00 - - - - - - - - - - - - - -
01.04.2020 08:00:00 7,3 6,2 6,7 12,0 13,2 3 2 8 4 ENE 1013,8 8 0 0,0
01.04.2020 07:00:00 7,3 5,9 6,7 12,0 13,3 4 2 10 6 NE 1013,8 8 0 0,0
01.04.2020 06:00:00 7,8 5,8 7,2 12,1 13,3 3 2 5 3 NNE 1013,8 9 0 0,0
01.04.2020 05:00:00 7,4 5,7 7,0 12,1 13,3 2 1 6 3 ESE 1013,8 10 0 0,0
01.04.2020 04:00:00 7,9 5,4 7,6 12,2 13,3 3 2 13 7 NE 1014,1 12 0 0,0
01.04.2020 03:00:00 8,0 6,0 7,2 12,2 13,3 4 2 8 4 NE 1014,6 12 0 0,0
01.04.2020 02:00:00 7,4 5,7 6,1 12,3 13,3 0 0 3 2 N 1014,4 10 0 0,0
01.04.2020 01:00:00 7,2 5,0 6,4 12,3 13,3 2 1 4 2 SSW 1014,8 9 0 0,0
01.04.2020 00:00:00 8,5 5,2 7,3 12,4 13,3 0 0 9 5 N 1015,1 11 0 0,0
31.03.2020 23:00:00 9,4 5,2 8,4 12,3 13,3 2 1 6 3 NNW 1015,0 7 0 0,0
31.03.2020 22:00:00 10,2 5,0 9,1 12,4 13,3 3 2 5 3 SSE 1015,1 16 0 0,0
31.03.2020 21:00:00 11,1 4,5 10,4 12,3 13,3 3 2 8 5 SE 1014,9 20 0 0,0
31.03.2020 20:00:00 11,8 4,5 11,5 12,2 13,3 8 4 18 10 SSE 1014,6 26 2 0,0
31.03.2020 19:00:00 12,5 4,5 13,4 12,1 13,3 14 8 22 12 SSE 1014,4 27 42 0,0
31.03.2020 18:00:00 12,6 4,3 13,5 11,9 13,3 17 9 27 15 ESE 1014,3 29 4 0,0
31.03.2020 17:00:00 13,1 4,3 14,7 11,8 13,3 16 8 32 17 ESE 1014,2 25 46 0,0
31.03.2020 16:00:00 12,9 5,1 13,4 11,7 13,3 11 6 23 12 ESE 1014,6 22 40 0,0
31.03.2020 15:00:00 11,4 3,2 12,0 11,6 13,4 15 8 25 13 ESE 1015,2 22 22 0,0
31.03.2020 14:00:00 9,6 2,7 10,3 11,5 13,4 16 9 27 14 ENE 1015,5 25 0 0,0
31.03.2020 13:00:00 8,5 1,4 9,5 11,5 13,3 14 8 23 12 E 1015,8 31 0 0,0
31.03.2020 12:00:00 7,3 1,4 7,9 11,5 13,4 11 6 21 12 ENE 1016,3 17 0 0,0
31.03.2020 11:00:00 5,4 2,2 4,0 11,5 13,4 9 5 16 8 ENE 1016,7 15 0 0,0
31.03.2020 10:00:00 3,2 1,7 2,5 11,6 13,4 10 5 16 9 NE 1016,8 8 0 0,0
31.03.2020 09:00:00 2,5 1,3 2,1 11,6 13,4 10 5 16 9 NE 1016,7 6 0 0,0
31.03.2020 08:00:00 2,1 0,9 2,0 11,7 13,4 8 4 15 8 NE 1016,7 6 0 0,0
31.03.2020 07:00:00 2,0 0,8 1,8 11,8 13,4 8 4 15 8 NE 1016,2 7 0 0,0
31.03.2020 06:00:00 1,8 0,8 1,6 11,8 13,4 9 5 14 7 NE 1016,5 6 0 0,0
31.03.2020 05:00:00 1,8 0,8 1,5 11,9 13,4 9 5 14 8 NE 1016,5 6 0 0,0
31.03.2020 04:00:00 1,7 0,7 0,9 12,0 13,4 3 2 13 7 NE 1016,9 8 0 0,0
31.03.2020 03:00:00 1,9 0,7 1,0 12,1 13,4 6 4 16 8 ENE 1017,2 9 0 0,0
31.03.2020 02:00:00 2,4 0,8 1,6 12,2 13,4 11 6 17 9 NE 1017,5 11 0 0,0
31.03.2020 01:00:00 2,7 0,8 2,1 12,3 13,4 8 5 17 9 ENE 1017,9 12 0 0,0
31.03.2020 00:00:00 3,8 1,3 2,7 12,4 13,4 9 5 14 8 ENE 1018,4 15 0 0,0
30.03.2020 23:00:00 3,7 1,2 1,2 12,4 13,4 8 4 10 6 NE 1018,5 13 0 0,0
30.03.2020 22:00:00 3,4 0,3 1,2 12,5 13,4 8 4 10 6 E 1018,5 19 0 0,0
30.03.2020 21:00:00 4,8 0,9 3,2 12,5 13,4 6 3 9 5 E 1018,3 31 0 0,0
30.03.2020 20:00:00 5,5 0,8 5,3 12,5 13,4 4 2 10 5 E 1017,8 36 0 0,0
30.03.2020 19:00:00 5,7 0,8 6,1 12,5 13,4 4 2 10 6 NNE 1017,7 38 0 0,0
30.03.2020 18:00:00 5,6 0,6 6,0 12,5 13,4 5 3 16 8 NE 1018,0 23 0 0,0
30.03.2020 17:00:00 5,6 1,1 6,2 12,4 13,4 8 4 15 8 NNE 1018,3 31 0 0,0
30.03.2020 16:00:00 5,9 1,2 6,7 12,4 13,4 5 3 16 9 N 1018,7 20 2 0,0
30.03.2020 15:00:00 5,4 1,1 5,2 12,4 13,4 4 2 16 9 NNW 1019,4 36 0 0,0
30.03.2020 14:00:00 4,7 0,5 6,4 12,4 13,4 5 3 14 8 N 1019,8 36 0 0,0
30.03.2020 13:00:00 4,5 1,3 5,2 12,4 13,4 6 4 16 9 N 1020,2 19 0 0,0
30.03.2020 12:00:00 4,5 0,8 5,3 12,4 13,4 8 4 17 9 NNE 1020,8 26 0 0,0
30.03.2020 11:00:00 3,9 0,6 4,6 12,5 13,4 4 2 19 11 N 1021,4 23 0 0,0
30.03.2020 10:00:00 3,8 0,5 4,6 12,6 13,4 9 5 20 11 N 1021,4 24 16 0,0
30.03.2020 09:00:00 3,5 0,0 2,7 12,7 13,4 11 6 21 11 N 1021,1 25 26 0,0
30.03.2020 08:00:00 3,1 -0,9 1,8 12,7 13,4 8 4 23 12 NNE 1021,1 32 0 0,0
30.03.2020 07:00:00 2,8 -0,7 1,8 12,8 13,4 5 3 8 5 NW 1020,9 33 0 0,0
30.03.2020 06:00:00 3,8 0,0 3,1 12,9 13,4 6 3 11 6 NW 1021,2 28 0 0,0
30.03.2020 05:00:00 3,8 1,7 3,3 13,0 13,4 6 3 13 7 WNW 1021,7 12 0 0,0
30.03.2020 04:00:00 4,0 3,1 3,7 13,0 13,4 7 4 11 6 W 1022,2 7 0 0,0
30.03.2020 03:00:00 4,1 2,6 3,5 13,1 13,4 3 2 11 6 SW 1022,6 10 0 0,2
30.03.2020 02:00:00 4,4 3,1 3,4 13,2 13,5 9 5 13 7 S 1023,0 7 0 0,0
30.03.2020 01:00:00 4,2 2,5 3,4 13,3 13,4 7 4 18 10 S 1023,3 8 0 0,4
30.03.2020 00:00:00 4,5 2,5 3,6 13,3 13,4 13 7 36 20 NE 1023,4 6 0 0,6
29.03.2020 23:00:00 5,2 2,4 4,0 13,4 13,4 19 11 35 19 NNE 1023,1 7 0 0,4
29.03.2020 22:00:00 6,6 1,7 4,7 13,4 13,4 18 10 38 20 NNE 1022,2 8 0 0,0
29.03.2020 21:00:00 8,0 1,8 7,9 13,4 13,4 17 9 44 24 NNE 1021,4 11 0 0,0
29.03.2020 20:00:00 11,0 3,0 10,8 13,4 13,5 16 9 33 18 NNE 1020,3 12 0 0,0
29.03.2020 19:00:00 12,6 4,8 13,1 13,4 13,4 18 10 33 18 N 1019,6 9 0 0,0
29.03.2020 18:00:00 14,0 5,6 14,3 13,3 13,4 11 6 28 15 N 1019,3 8 0 0,0
29.03.2020 17:00:00 14,8 6,4 15,0 13,2 13,4 9 5 20 11 N 1019,2 7 0 0,0
29.03.2020 16:00:00 14,2 6,8 14,2 13,2 13,4 13 7 24 13 NNW 1019,5 6 0 0,0
29.03.2020 15:00:00 13,4 7,4 13,7 13,1 13,4 13 7 27 15 WNW 1020,1 5 0 0,0
29.03.2020 14:00:00 14,8 7,6 15,0 13,0 13,4 11 6 22 12 W 1020,2 6 22 0,0
29.03.2020 13:00:00 13,6 8,2 13,6 13,0 13,5 8 4 19 11 W 1020,9 4,6 0 0,0
29.03.2020 12:00:00 13,8 8,6 14,6 13,0 13,4 10 5 19 10 W 1021,1 5 36 0,0
29.03.2020 11:00:00 11,9 8,4 11,1 13,0 13,4 8 4 18 10 W 1021,4 6 55 0,0
29.03.2020 10:00:00 9,3 7,4 6,9 13,1 13,4 10 5 15 8 WSW 1021,3 6 54 0,0
29.03.2020 09:00:00 4,7 4,1 1,9 13,2 13,4 6 3 8 4 SSW 1021,3 4,0 40 0,0
29.03.2020 08:00:00 3,1 2,5 1,5 13,3 13,4 4 2 6 3 S 1021,1 2,8 0 0,0
29.03.2020 07:00:00 3,7 3,0 2,4 13,5 13,4 0 0 3 2 N 1020,8 4,0 0 0,0
29.03.2020 06:00:00 3,3 2,3 2,0 13,6 13,4 0 0 4 2 N 1020,7 4,7 0 0,0
29.03.2020 05:00:00 3,6 2,6 2,1 13,7 13,4 4 2 5 3 S 1020,8 4,0 0 0,0
29.03.2020 04:00:00 4,2 3,0 2,4 13,8 13,4 3 2 4 2 S 1021,2 4,7 0 0,0
29.03.2020 03:00:00 4,7 3,2 3,7 14,0 13,4 2 1 4 2 S 1021,6 6 0 0,0
29.03.2020 02:00:00 5,7 3,9 4,2 14,1 13,4 3 2 6 3 S 1021,8 6 0 0,0
29.03.2020 01:00:00 6,2 3,9 4,3 14,2 13,4 3 2 5 3 S 1021,7 6 0 0,0
29.03.2020 00:00:00 7,6 4,0 5,9 14,3 13,4 2 1 8 4 SW 1021,4 7 0 0,0
28.03.2020 23:00:00 9,0 4,2 8,2 14,3 13,4 5 3 10 5 W 1021,2 8 0 0,0
28.03.2020 22:00:00 10,1 3,1 8,8 14,4 13,4 4 2 11 6 WNW 1020,8 10 0 0,0
28.03.2020 21:00:00 11,9 3,1 11,0 14,3 13,4 4 2 16 9 WNW 1020,0 13 5 0,0
28.03.2020 20:00:00 14,3 2,8 14,5 14,2 13,4 9 5 21 12 WNW 1019,4 16 60 0,0
28.03.2020 19:00:00 15,8 2,9 17,5 14,1 13,4 13 7 26 14 WNW 1018,8 15 60 0,0
28.03.2020 18:00:00 17,1 2,7 19,6 13,9 13,4 15 8 24 13 WNW 1018,1 15 60 0,0
28.03.2020 17:00:00 17,6 2,3 20,9 13,6 13,4 14 7 27 15 NW 1018,2 14 60 0,0
28.03.2020 16:00:00 18,7 0,8 22,3 13,4 13,4 6 4 20 11 WSW 1018,3 17 60 0,0
28.03.2020 15:00:00 17,6 0,7 21,4 13,2 13,4 7 4 19 10 NW 1019,0 16 60 0,0
28.03.2020 14:00:00 17,1 1,5 20,2 13,0 13,4 7 4 16 9 NW 1019,3 25 60 0,0
28.03.2020 13:00:00 16,4 4,1 19,1 12,9 13,4 3 2 9 5 WSW 1019,8 16 60 0,0
28.03.2020 12:00:00 13,2 5,8 15,2 12,9 13,4 6 4 10 6 NW 1019,9 14 60 0,0
28.03.2020 11:00:00 10,8 6,3 12,1 12,9 13,4 4 2 8 4 WNW 1020,0 12 60 0,0
28.03.2020 10:00:00 7,9 5,4 7,7 13,0 13,4 0 0 5 3 N 1019,7 9 60 0,0
28.03.2020 09:00:00 4,5 3,6 2,0 13,2 13,4 0 0 3 2 N 1019,2 9 47 0,0
28.03.2020 08:00:00 2,7 1,8 1,9 13,3 13,4 0 0 2 1 N 1018,6 9 0 0,0
28.03.2020 07:00:00 3,1 2,2 2,1 13,4 13,4 0 0 4 2 N 1018,1 8 0 0,0
28.03.2020 06:00:00 3,3 2,3 1,9 13,5 13,5 2 1 8 4 S 1017,9 8 0 0,0
28.03.2020 05:00:00 3,9 2,9 2,7 13,6 13,4 3 2 5 3 NNW 1017,8 9 0 0,0
28.03.2020 04:00:00 4,4 3,2 3,1 13,7 13,4 4 2 5 3 S 1017,8 9 0 0,0
28.03.2020 03:00:00 5,1 3,8 3,7 13,8 13,5 0 0 4 2 N 1018,0 8 0 0,0
28.03.2020 02:00:00 6,1 3,9 5,1 13,9 13,5 0 0 4 2 N 1017,6 9 0 0,0
28.03.2020 01:00:00 7,0 3,8 5,6 14,0 13,4 2 1 6 3 NNE 1017,6 10 0 0,0
28.03.2020 00:00:00 8,1 3,9 6,7 14,1 13,4 3 2 5 3 NNW 1017,5 12 0 0,0
27.03.2020 23:00:00 9,2 3,6 8,2 14,2 13,4 2 1 8 4 NW 1017,2 16 0 0,0
27.03.2020 22:00:00 10,4 3,7 9,6 14,2 13,4 3 2 11 6 WNW 1017,1 15 0 0,0
27.03.2020 21:00:00 12,0 3,7 10,9 14,2 13,4 6 3 20 11 NNW 1016,4 15 4 0,0
27.03.2020 20:00:00 13,7 3,2 13,9 14,1 13,4 10 5 23 13 NNW 1015,7 20 60 0,0
27.03.2020 19:00:00 15,9 0,0 17,7 14,0 13,4 9 5 22 12 E 1014,8 26 60 0,0
27.03.2020 18:00:00 15,9 -0,8 18,3 13,8 13,4 9 5 19 10 E 1014,7 25 60 0,0
27.03.2020 17:00:00 15,5 -0,3 17,8 13,6 13,4 9 5 27 15 NNE 1015,0 29 51 0,0
27.03.2020 16:00:00 15,8 -0,5 17,2 13,4 13,4 9 5 23 13 E 1015,3 23 56 0,0
27.03.2020 15:00:00 14,9 0,3 17,6 13,2 13,4 12 7 24 13 NE 1015,7 24 57 0,0
27.03.2020 14:00:00 14,2 3,3 16,4 13,0 13,4 10 5 21 11 ESE 1016,2 18 60 0,0
27.03.2020 13:00:00 12,8 4,2 15,5 12,9 13,4 4 2 17 9 NNE 1016,7 14 60 0,0
27.03.2020 12:00:00 10,8 4,9 10,7 12,9 13,4 0 0 7 4 N 1017,2 10 60 0,0
27.03.2020 11:00:00 5,4 4,5 6,5 12,9 13,4 3 1 10 5 NE 1017,2 6 55 0,0
27.03.2020 10:00:00 4,1 4,1 2,5 13,1 13,4 3 1 6 3 NE 1017,0 1,5 31 0,0
27.03.2020 09:00:00 2,0 1,9 0,8 13,2 13,4 3 2 9 5 NNE 1016,7 0,1 2 0,0
27.03.2020 08:00:00 1,4 1,3 1,2 13,3 13,4 2 1 9 5 E 1016,1 0,1 0 0,0
27.03.2020 07:00:00 2,3 2,0 1,3 13,4 13,4 5 3 9 5 NE 1016,0 0,1 0 0,0
27.03.2020 06:00:00 2,5 2,1 1,2 13,5 13,4 4 2 12 7 ENE 1015,7 0,2 0 0,0
27.03.2020 05:00:00 3,8 3,4 1,3 13,6 13,4 9 5 15 8 NE 1015,3 3,9 0 0,0
27.03.2020 04:00:00 4,0 3,3 1,6 13,7 13,4 3 2 7 4 E 1014,9 1,9 0 0,0
27.03.2020 03:00:00 4,7 3,8 2,8 13,8 13,4 3 2 7 4 NNE 1014,8 8 0 0,0
27.03.2020 02:00:00 5,1 3,6 3,3 13,9 13,4 7 4 19 11 E 1014,7 8 0 0,0
27.03.2020 01:00:00 6,5 5,1 4,3 13,9 13,4 5 3 12 6 ENE 1014,7 8 0 0,0
27.03.2020 00:00:00 7,4 4,5 5,6 14,0 13,4 3 2 10 6 ESE 1014,4 13 0 0,2
26.03.2020 23:00:00 8,0 4,6 6,3 14,1 13,4 5 3 23 13 E 1014,6 7 0 0,2
26.03.2020 22:00:00 9,8 0,9 9,1 14,1 13,4 3 1 10 5 N 1014,2 10 0 0,0
26.03.2020 21:00:00 10,1 0,7 9,7 14,1 13,4 3 2 16 8 WNW 1013,4 11 0 0,0
26.03.2020 20:00:00 10,8 0,2 10,7 14,1 13,4 7 4 21 11 WNW 1012,8 15 0 0,0
26.03.2020 19:00:00 11,4 0,2 11,8 14,1 13,4 12 7 27 14 WNW 1012,2 16 1 0,0
26.03.2020 18:00:00 11,8 0,8 12,2 14,0 13,4 12 6 29 15 WNW 1011,7 15 0 0,0
26.03.2020 17:00:00 12,7 2,0 12,5 13,8 13,4 11 6 30 16 WNW 1011,4 14 14 0,0
26.03.2020 16:00:00 13,2 -0,8 14,2 13,6 13,4 12 6 30 16 W 1011,1 17 32 0,0
26.03.2020 15:00:00 13,9 -0,2 13,6 13,5 13,4 10 6 24 13 W 1011,4 15 45 0,0
26.03.2020 14:00:00 13,7 -0,7 16,0 13,4 13,4 8 4 21 11 SW 1011,8 15 60 0,0
26.03.2020 13:00:00 12,4 -3,9 15,0 13,3 13,4 8 4 22 12 W 1012,3 20 60 0,0
26.03.2020 12:00:00 10,7 -1,4 13,6 13,4 13,4 8 4 19 11 WNW 1013,0 16 60 0,0
26.03.2020 11:00:00 8,4 -2,0 11,9 13,5 13,4 9 5 19 11 NW 1013,1 16 60 0,0
26.03.2020 10:00:00 6,7 -1,2 7,3 13,6 13,4 8 4 14 7 N 1012,8 14 60 0,0
26.03.2020 09:00:00 - - - - - - - - - - - - - -

tt = Température de l'air
td = dewpoint
tt 5cm = Température de l'air 5cm
tt -20cm = Température de l'air -20cm
tt -100cm = Température de l'air -100cm
ff = Vitesse du vent
fx = gusts
dd = Direction du vent
ppp = reduced air pressure
vv = visibility
sd = Ensoleillement
rr = Quantités de précipitations

stations d'obs. à proximité